Location: St. Louis
(38.6270°N, 90.1994°W)
Time: 02:03:09
(UTC-06:00)

Vanguard 2 - Pass Details

Date: 05 December 2021
Orbit: 553 x 2936 km, 32.9° (Epoch: 16 January)

Event Time Altitude Azimuth Distance (km) Brightness Sun altitude
Rises 16:28:19 0° 269° (W) 3,393 12.1 1.0°
Reaches altitude 10° 16:30:32 10° 262° (W) 2,669 11.8 0.7°
Maximum altitude 16:36:38 43° 192° (SSW) 1,747 9.8 -0.4°
Drops below altitude 10° 16:46:28 10° 126° (SE) 4,280 11.1 -2.1°
Sets 16:51:00 0° 121° (ESE) 5,677 11.6 -2.9°
